Theta_e
344 337 337 341 345 346 346 347 345 344 343 340 337 338 338 334 330 330 330 330 331 331 331 331 330 329 327 325 324 327 331 333 334 335 339 341 341 340 339 339 338 338 337 337 336 336 336 335 337 338 337 337 338 338 339 338 338 338 338 338 339 340 341 341 341 341 342 341 341 341 342 341 341 341 341 341 340 339 338 337 337 337 337 337 336
344 340 340 340 343 346 346 347 344 345 343 338 337 339 337 332 330 331 331 331 332 332 332 331 329 328 326 326 326 329 333 335 335 337 340 341 340 339 339 338 338 337 337 337 337 336 336 336 336 337 337 337 338 338 338 337 337 336 336 337 338 338 339 340 339 340 341 341 341 341 341 341 341 341 340 340 339 338 337 337 337 337 337 337 337
340 344 344 340 341 344 345 345 344 345 342 338 338 339 336 331 330 331 331 331 332 333 333 331 329 327 326 327 329 332 335 336 336 337 341 340 340 339 339 338 337 337 337 337 336 336 336 336 336 337 337 337 337 338 337 336 336 336 337 338 338 338 339 338 338 339 340 340 340 340 339 339 339 338 337 337 337 336 336 337 336 337 337 336 336
338 343 344 342 341 343 344 344 344 344 341 338 338 339 335 330 330 331 332 332 333 334 333 331 329 327 326 329 332 334 337 338 337 338 339 340 339 338 338 338 337 337 337 337 336 336 336 336 336 336 336 337 337 337 336 335 336 336 337 337 338 339 339 339 339 339 338 338 338 338 336 336 337 337 336 336 335 334 335 335 335 335 335 335 335
338 340 343 345 343 343 344 344 344 343 340 339 339 339 334 331 331 332 333 333 334 334 334 333 330 328 331 334 336 338 339 339 339 337 337 339 339 338 338 338 337 337 336 337 336 336 336 336 336 336 336 337 336 335 335 335 335 335 335 336 338 339 340 340 340 338 337 337 337 336 335 335 337 336 335 336 335 334 334 334 334 334 334 334 334
337 339 343 346 345 344 343 344 343 342 340 339 340 338 334 331 330 332 333 334 334 335 335 334 332 331 335 338 339 340 340 340 339 336 336 338 339 338 338 337 337 337 336 337 337 337 336 335 335 336 335 336 335 334 334 334 333 334 334 336 337 337 338 339 340 339 338 337 336 335 334 335 336 336 335 335 334 335 335 333 332 332 332 332 333
336 339 343 346 346 345 343 344 343 343 341 340 340 337 334 331 330 333 334 335 335 336 335 335 334 334 338 340 339 340 340 340 338 336 337 338 338 338 338 337 337 337 337 338 337 337 336 335 334 333 333 334 333 333 334 333 333 334 334 335 336 336 337 337 338 339 339 337 335 334 334 334 336 336 335 334 332 333 334 333 332 332 332 332 331
337 339 342 344 346 346 344 344 345 345 343 341 340 338 335 331 330 333 335 335 336 336 335 335 335 335 339 340 340 339 340 340 337 337 336 337 339 339 339 337 337 338 338 338 338 337 336 335 334 332 331 330 331 333 333 332 332 333 333 334 334 333 333 334 334 335 335 335 333 333 333 334 334 336 334 334 332 331 332 332 332 332 331 331 331
341 341 339 342 346 347 346 346 347 346 345 343 341 338 335 332 331 333 335 335 336 336 335 335 334 335 339 340 339 338 339 339 337 336 334 337 340 339 337 337 338 337 337 337 338 338 337 336 334 332 331 327 329 332 331 331 331 332 332 331 331 330 331 333 334 333 333 332 332 331 332 333 334 334 334 333 332 330 330 329 330 331 330 330 330
344 342 337 341 347 348 347 347 348 347 346 344 342 339 336 333 332 333 334 335 336 337 336 334 334 336 339 340 339 339 339 338 336 335 335 337 338 336 335 337 337 336 336 338 338 338 338 337 334 333 331 325 326 331 330 330 330 330 330 329 329 330 332 333 333 332 332 332 331 331 331 331 332 333 333 332 331 330 330 329 329 329 330 330 330
344 342 339 341 346 348 348 348 348 347 346 345 342 338 335 334 332 333 334 335 336 337 335 333 335 337 339 340 339 339 337 336 336 336 336 336 335 334 336 338 338 338 338 338 338 338 338 337 335 333 331 325 322 327 329 329 329 328 328 329 331 332 334 333 332 332 331 331 330 331 331 331 332 332 332 332 330 330 330 329 329 329 329 330 329
343 342 340 343 346 347 348 348 348 347 347 344 341 338 336 334 333 332 334 335 336 336 334 333 335 336 338 339 338 338 336 336 337 337 337 336 334 335 338 339 340 340 338 338 338 338 337 335 334 333 332 326 319 322 327 328 327 328 329 331 333 334 334 333 332 332 330 329 328 330 330 330 331 332 331 331 329 328 329 328 329 329 329 329 329
344 343 341 343 346 346 347 347 347 347 346 344 341 340 339 336 334 333 335 336 335 335 333 333 335 335 336 336 337 338 336 337 338 337 337 336 335 336 338 339 340 340 339 339 338 336 335 334 333 332 329 325 319 319 323 325 327 329 332 333 334 335 335 333 331 331 329 327 329 330 329 329 331 331 330 330 329 329 329 328 328 328 328 328 328
344 344 343 344 344 344 346 347 347 347 346 344 343 342 341 338 335 336 337 336 335 335 334 334 335 334 334 336 338 338 337 338 338 337 337 335 335 338 338 339 340 340 339 338 336 335 334 333 333 330 324 321 320 320 323 326 329 332 333 334 335 336 335 333 331 330 328 327 329 330 329 329 330 330 330 330 329 329 329 328 329 328 329 328 328
345 344 342 343 344 344 345 346 346 346 345 345 344 342 341 337 336 337 336 335 335 334 333 334 334 335 335 337 339 339 338 338 338 336 335 334 335 339 339 338 340 340 339 336 335 335 333 333 332 329 321 318 322 325 328 330 332 333 333 335 336 337 334 331 330 329 328 328 329 329 329 329 329 331 331 329 328 329 329 328 329 329 329 328 328
345 343 341 342 343 344 345 345 346 346 345 345 344 342 339 337 337 337 335 335 334 334 333 332 334 337 338 339 341 340 339 338 338 335 334 334 336 339 339 339 340 339 338 336 335 334 333 333 331 328 320 319 326 330 331 332 333 334 334 335 336 337 334 331 329 328 328 327 326 327 327 328 329 330 329 329 329 328 328 328 328 328 327 327 327
344 340 338 341 342 343 344 344 344 345 344 344 342 340 338 338 338 337 335 334 333 333 333 333 335 338 340 341 341 340 340 337 336 334 334 335 337 338 339 339 340 338 337 335 334 333 333 333 331 328 321 320 329 331 332 333 333 334 334 335 335 335 332 331 330 328 327 325 326 328 328 328 329 329 329 329 329 328 328 328 328 327 327 327 327
343 338 336 341 342 343 344 344 343 343 343 342 341 339 339 340 338 336 335 333 333 335 335 335 337 339 340 340 340 341 340 337 335 334 335 337 337 339 339 340 339 337 336 335 334 333 333 332 331 329 323 321 328 332 332 333 333 334 334 334 335 334 332 332 331 329 327 325 327 329 329 328 328 329 329 329 329 329 328 328 328 327 326 326 327
342 338 337 341 343 343 343 343 343 343 343 342 341 340 340 340 337 336 335 332 335 338 337 337 338 339 339 339 340 340 339 337 335 334 335 337 338 339 339 339 338 337 336 335 334 333 333 332 331 330 325 321 326 332 333 333 334 333 332 333 334 333 333 333 331 330 327 326 327 328 329 328 328 329 329 328 328 328 328 327 327 326 326 327 326
342 340 340 342 343 343 343 343 342 342 342 342 341 341 341 339 337 337 335 334 337 339 338 338 338 339 339 339 338 338 338 336 335 334 335 337 339 339 339 338 337 336 336 335 334 333 333 333 332 330 326 322 326 331 333 333 334 333 332 334 333 332 333 332 331 328 325 325 326 328 328 329 328 328 328 328 327 327 327 327 326 326 326 326 325
342 341 341 342 342 342 342 342 341 340 341 341 341 341 340 339 338 337 336 337 339 339 339 338 338 339 339 339 338 337 337 336 335 335 335 336 337 338 338 337 337 336 335 334 334 333 333 333 332 331 328 327 330 332 333 333 333 334 334 335 334 332 332 332 331 328 324 325 327 328 328 328 328 329 328 328 328 327 326 326 326 326 325 325 325
342 342 342 342 342 341 341 340 340 340 340 341 340 339 339 339 337 337 338 339 340 340 339 338 339 339 339 338 337 336 336 335 335 335 336 335 336 338 337 337 336 336 334 334 334 333 333 333 333 332 330 330 331 332 332 333 334 335 334 335 335 333 331 332 330 326 324 326 328 328 328 328 328 328 327 327 326 326 326 325 325 325 325 325 325
343 343 342 342 342 341 341 340 340 340 340 340 339 338 338 338 337 337 339 339 340 341 340 339 340 340 340 338 337 336 336 335 334 335 336 335 335 337 337 336 336 335 334 334 334 333 332 333 333 333 332 331 331 332 333 335 335 334 335 335 334 333 331 331 328 324 325 328 329 328 328 328 328 327 327 327 326 326 326 325 325 325 325 324 324
343 343 342 343 342 339 340 341 340 341 339 337 337 337 338 338 338 339 339 340 341 341 340 340 340 340 340 339 338 337 336 335 336 335 335 334 335 336 337 336 335 335 334 334 334 333 332 332 333 333 332 332 332 333 333 335 335 334 336 335 333 332 331 330 327 324 324 327 328 327 327 328 328 328 327 327 326 326 326 325 325 325 324 324 324
344 343 342 343 341 339 341 341 339 339 336 335 337 337 338 338 339 340 339 339 340 341 340 340 339 339 339 339 339 339 337 337 337 336 335 334 335 336 336 335 335 334 334 334 333 333 332 331 332 333 334 335 336 336 335 335 334 336 338 335 332 332 331 330 328 326 324 324 326 326 327 328 328 328 327 326 326 326 325 325 324 324 324 324 324
344 343 343 343 341 342 343 340 338 338 335 335 336 336 337 338 339 339 339 339 340 340 339 339 339 338 338 338 339 339 338 338 338 336 335 334 334 335 335 334 333 333 333 333 333 333 332 331 331 332 334 336 337 338 338 336 334 336 338 335 332 332 332 331 329 328 326 324 326 328 328 328 328 328 327 327 326 326 325 325 324 324 324 324 323
343 343 343 342 342 344 341 339 341 340 338 336 335 336 337 338 339 339 338 338 339 339 340 339 338 338 337 337 338 338 337 337 337 336 335 334 333 334 335 334 332 331 332 332 331 332 332 331 331 331 332 334 335 338 338 336 335 336 338 335 333 333 333 332 330 328 326 323 324 327 329 328 328 328 327 327 326 325 325 325 324 324 324 324 323
342 343 343 342 342 344 341 340 342 341 340 338 335 336 339 339 340 339 338 339 340 339 340 340 339 338 337 337 337 337 336 337 337 336 335 335 335 335 335 334 332 330 330 331 331 331 331 331 331 330 331 332 333 336 337 336 336 336 337 335 333 333 333 332 332 329 326 323 320 322 326 327 327 327 326 326 326 326 326 326 325 324 324 323 321
343 344 342 341 343 344 341 341 342 340 341 339 336 338 340 341 341 340 339 339 340 339 339 339 339 339 338 337 337 336 336 336 336 336 336 335 336 335 334 333 333 331 331 333 332 332 331 331 332 331 332 333 333 335 336 335 335 335 337 336 333 333 334 333 333 331 327 324 318 316 322 326 326 326 327 327 327 327 327 326 325 324 320 316 315
344 345 342 341 344 344 342 342 341 340 340 338 337 339 339 339 340 340 339 339 339 340 339 339 338 337 336 337 337 335 335 336 336 336 336 336 336 335 335 334 334 333 332 333 333 333 333 333 333 332 333 333 332 335 336 334 333 335 337 335 332 333 333 333 333 332 329 324 318 316 321 325 327 328 328 327 327 327 327 326 325 323 318 312 311
345 344 341 341 344 343 342 342 341 341 340 338 339 339 339 338 339 340 339 339 339 339 339 339 338 335 335 336 336 334 334 335 336 337 336 336 336 335 334 334 334 334 333 334 334 334 335 334 334 334 333 333 331 332 333 333 334 335 336 333 332 333 333 333 332 333 331 325 321 322 325 327 328 329 329 328 326 325 326 325 324 322 318 314 314
343 343 341 341 343 343 343 342 342 341 340 339 339 339 339 338 339 339 339 339 339 339 339 338 337 335 335 336 335 334 333 334 336 337 336 336 336 334 334 334 334 334 334 335 335 334 335 334 334 334 333 331 330 332 332 333 335 335 334 332 332 333 333 333 332 333 331 325 323 326 328 328 329 329 328 327 327 328 328 328 325 321 320 320 319
340 340 339 341 341 342 343 343 342 340 340 339 338 339 338 338 339 339 339 339 338 339 339 337 335 335 335 335 335 333 332 334 335 336 336 336 336 334 335 335 334 335 335 335 335 334 334 334 334 333 333 331 331 333 334 335 334 334 333 332 332 333 333 332 332 332 330 326 325 327 328 329 328 327 328 328 328 329 329 328 326 323 323 323 322
337 336 337 340 340 341 342 342 341 340 340 339 338 338 337 337 337 338 339 339 339 339 337 336 335 335 335 335 335 333 332 333 334 335 336 336 335 334 335 335 335 336 335 335 335 335 335 335 334 333 334 334 333 333 334 335 334 334 333 331 331 332 332 331 331 332 331 328 327 328 329 329 328 327 328 329 329 328 328 328 327 326 325 324 324
337 336 336 339 340 340 340 340 340 340 339 339 339 338 337 336 336 338 339 339 340 338 336 336 337 336 336 336 335 333 332 333 334 334 335 336 336 335 336 336 336 336 336 336 337 336 335 335 334 334 334 334 333 332 333 335 333 333 332 330 331 331 331 332 331 332 331 329 328 329 329 328 328 328 328 329 329 328 328 329 329 328 328 327 326
338 336 336 338 338 338 339 339 340 340 339 340 339 337 337 337 337 339 339 338 338 337 335 336 336 336 335 336 336 335 333 333 333 333 333 336 337 337 337 337 337 337 337 337 336 336 335 335 335 334 333 333 331 332 334 334 333 333 332 331 331 331 331 332 332 331 331 330 329 329 329 329 328 328 328 328 328 328 328 328 329 329 329 329 328
338 336 336 338 339 338 340 340 340 339 338 340 338 336 337 337 338 339 339 338 337 336 336 336 336 336 335 336 336 336 335 333 333 334 334 335 336 336 337 337 337 337 337 336 336 335 335 334 334 333 333 333 332 332 333 334 334 334 333 332 332 331 331 332 332 331 331 330 330 330 329 330 329 328 327 327 327 328 328 328 328 328 329 329 329
338 337 336 338 340 340 340 340 339 339 339 338 336 336 338 337 338 339 339 339 338 337 336 336 336 335 336 336 336 335 335 334 334 334 334 335 335 334 336 337 336 337 336 335 335 335 334 334 333 332 331 332 332 331 332 333 334 335 334 332 331 331 330 331 332 331 330 330 330 330 330 329 329 327 326 326 327 328 328 327 326 327 327 328 329
339 337 336 337 340 341 339 338 339 340 339 337 335 337 338 337 338 339 339 339 338 337 337 336 336 336 336 337 336 335 335 334 334 334 335 335 335 333 335 336 335 335 336 336 335 335 335 335 334 333 332 332 331 331 332 334 334 334 333 331 330 330 330 331 331 331 330 330 330 329 329 329 329 327 326 327 327 328 327 326 324 323 325 327 329
340 337 336 337 339 339 337 338 339 339 337 335 336 337 337 337 338 337 337 337 337 336 336 336 336 336 336 336 336 335 334 334 334 334 334 334 334 333 335 337 334 334 336 336 335 335 335 335 335 334 333 331 331 331 332 333 333 332 331 330 329 330 330 330 331 330 330 329 329 329 328 329 329 328 328 327 328 328 326 323 322 322 325 327 328
341 336 335 336 337 337 336 338 337 335 335 336 338 337 336 336 336 336 336 336 336 336 336 335 335 335 335 336 336 335 334 334 333 333 334 334 334 333 335 336 335 334 335 335 335 335 335 336 335 333 332 331 331 332 332 332 332 331 330 330 330 330 330 330 330 330 330 330 330 329 328 329 329 328 328 329 329 328 324 321 322 323 325 327 328
339 334 332 332 336 336 335 335 334 335 337 338 338 337 336 336 336 336 336 336 336 336 336 335 334 334 334 334 335 335 335 334 335 335 336 336 335 335 335 336 336 336 335 335 335 335 335 336 335 333 332 332 332 332 331 332 331 331 330 330 329 329 330 330 330 330 330 330 330 329 329 328 328 328 329 329 329 327 324 324 326 326 326 328 328
333 332 330 331 334 335 333 333 334 336 337 337 338 337 336 336 336 336 336 336 336 335 336 335 334 334 334 335 334 334 335 335 336 336 337 337 335 335 336 336 337 336 335 336 335 336 336 336 335 333 332 332 332 331 331 332 331 330 330 331 330 329 330 330 329 330 330 330 329 329 329 328 328 329 329 328 328 327 325 327 328 328 327 327 327
332 332 331 332 334 335 333 333 335 337 336 337 338 337 336 336 336 336 336 337 336 336 335 335 334 334 335 335 334 334 335 335 335 336 337 337 336 336 336 337 336 335 336 336 336 336 336 335 335 334 333 333 333 332 332 332 331 330 331 332 330 329 331 330 329 329 330 329 329 329 329 328 329 328 329 328 327 326 326 328 328 328 327 327 326
332 333 333 333 333 333 334 333 336 338 337 337 337 336 336 336 335 336 336 336 336 335 335 335 335 335 334 334 334 335 335 335 335 336 336 336 336 336 336 336 336 335 335 336 336 336 335 335 335 334 333 333 333 333 334 333 330 330 331 332 331 331 332 330 329 329 329 329 329 329 329 328 328 327 327 327 326 326 327 328 328 327 327 326 325
332 333 335 335 334 333 334 334 336 337 337 337 337 337 337 336 335 335 335 336 336 335 335 335 335 335 335 333 334 335 335 334 335 336 335 335 335 335 335 335 335 335 335 335 335 335 335 335 335 334 333 333 333 334 334 333 332 331 330 331 332 332 331 329 330 330 329 328 328 329 328 328 327 327 326 326 326 327 326 327 328 327 325 323 322
332 334 334 334 334 334 337 335 334 336 338 337 337 337 336 336 336 335 335 336 336 336 336 336 336 335 334 334 334 334 334 335 335 336 336 335 334 334 334 334 334 335 335 334 335 335 334 334 334 334 333 332 332 333 334 333 333 332 330 330 330 329 329 329 329 329 329 329 328 328 328 328 327 326 326 326 326 327 326 327 328 326 324 323 322
332 332 332 333 333 335 338 335 333 336 338 337 337 337 337 336 336 336 335 336 336 337 337 336 336 335 334 334 334 334 334 335 335 336 336 335 334 334 333 333 333 335 335 334 334 335 334 333 334 334 333 332 331 332 332 332 332 331 331 331 330 329 329 329 328 328 329 329 329 328 328 328 328 327 327 326 327 326 326 327 326 326 325 324 324
332 332 331 333 333 334 336 335 335 336 337 337 337 337 337 336 335 335 336 336 336 336 336 336 335 334 334 334 334 333 334 334 335 335 334 334 334 333 333 333 334 334 334 334 333 334 334 333 334 334 333 332 332 332 331 330 330 330 331 331 330 329 329 329 329 327 327 329 329 329 328 329 328 328 327 326 326 325 325 326 325 325 324 324 326
332 331 331 332 333 333 333 334 334 335 337 337 337 337 336 336 335 334 335 335 335 335 335 335 335 334 333 334 333 333 333 334 334 333 333 333 333 333 333 334 335 335 335 334 333 334 334 333 333 334 334 333 332 331 330 330 330 330 331 332 331 330 329 329 329 328 327 327 328 328 327 327 327 327 325 326 326 325 325 325 324 324 322 322 322
330 331 331 332 333 333 333 334 334 335 337 337 336 337 336 336 335 334 334 334 335 335 335 335 335 334 333 333 333 332 333 333 333 332 332 332 333 333 334 334 335 335 335 334 333 334 334 333 333 333 333 333 333 332 331 332 331 331 331 331 331 331 330 329 329 328 327 327 327 327 326 326 326 325 323 323 323 323 324 324 323 321 318 316 313
Wind_Speed
21 25 24 21 21 19 20 20 21 24 24 22 22 21 20 20 21 23 23 23 22 21 20 19 18 17 17 17 18 18 18 17 18 19 20 19 19 19 18 18 18 19 19 18 18 18 18 18 19 19 19 20 20 20 20 23 24 24 23 23 23 23 22 22 23 24 24 24 24 23 22 22 21 21 20 20 21 21 21 22 23 23 22 21 20
23 24 24 23 22 20 20 19 21 23 23 22 21 21 20 20 22 23 23 23 22 21 20 19 18 17 17 17 18 18 17 17 18 19 20 19 18 18 18 18 19 19 19 18 18 18 18 18 18 19 19 19 19 19 20 22 24 25 24 23 23 23 23 22 23 24 24 24 24 23 22 22 21 20 20 20 20 20 20 22 22 23 22 20 20
26 24 24 24 22 20 20 20 21 23 23 23 21 21 20 20 22 23 23 23 22 21 20 18 18 18 18 18 18 17 17 18 18 18 19 19 18 18 18 19 19 19 19 18 18 18 18 18 18 19 18 18 18 17 20 22 23 23 22 21 22 23 23 23 23 23 23 23 23 23 22 21 20 20 19 19 19 19 19 19 20 21 19 19 19
27 24 24 24 22 21 20 21 22 23 23 22 22 21 21 21 22 24 23 23 22 21 20 18 18 18 18 18 18 17 17 17 17 17 17 18 18 18 18 19 19 19 19 19 18 18 17 17 17 17 17 17 17 17 20 22 21 21 21 22 22 21 21 22 22 22 20 20 20 20 22 22 21 19 19 19 18 18 18 18 18 18 18 18 17
28 25 25 24 23 22 21 22 22 22 23 22 22 22 21 21 23 24 23 23 22 21 19 19 18 18 18 19 18 17 18 17 16 16 17 17 18 18 18 18 19 19 19 19 18 18 17 17 16 16 16 15 15 18 20 19 20 21 22 23 22 20 19 20 21 21 20 21 19 18 19 22 20 18 18 18 18 18 18 18 18 18 18 18 17
28 26 25 25 24 23 22 22 22 22 22 23 23 22 21 21 23 23 23 22 22 21 19 19 18 18 19 18 17 17 18 17 16 16 17 17 17 17 17 17 18 18 18 18 18 18 17 16 16 15 15 14 15 18 18 19 20 20 20 20 20 19 17 16 17 18 17 18 17 17 18 20 19 17 16 16 17 18 18 18 18 18 18 18 17
28 27 25 26 25 24 23 22 22 21 22 23 23 23 22 22 23 23 23 22 22 20 19 19 18 19 18 17 17 16 17 16 16 17 18 18 17 17 16 17 17 17 16 17 17 17 17 16 15 14 14 14 16 19 18 19 19 18 18 17 16 14 12 11 9 8 7 10 14 17 18 18 17 16 15 15 16 18 19 18 18 18 17 17 17
26 26 25 26 25 24 23 22 22 21 22 23 23 23 22 22 24 23 22 22 21 20 19 18 18 18 18 17 16 16 17 15 16 18 17 18 18 16 16 16 15 15 15 15 15 15 15 14 14 13 13 13 17 19 18 18 17 16 15 14 12 10 8 7 6 6 8 12 17 18 18 18 17 16 15 16 16 16 17 18 18 17 17 17 17
24 23 24 25 24 24 23 23 22 21 22 23 23 23 22 22 24 23 22 21 20 19 18 18 18 18 17 17 15 16 17 15 16 18 17 19 18 16 16 16 14 14 14 14 13 13 13 13 12 12 12 12 15 18 18 17 15 14 12 11 9 8 9 12 13 17 20 20 19 17 18 18 18 17 16 17 17 16 15 16 17 17 17 17 17
22 21 22 24 24 24 23 23 22 22 22 22 23 22 23 23 24 23 22 22 19 18 18 18 17 17 17 16 15 16 16 16 16 18 18 19 17 15 15 16 14 13 13 13 12 11 11 11 11 11 10 11 14 17 18 15 13 12 10 9 8 10 15 18 20 21 22 20 18 18 17 17 18 17 16 16 17 17 17 17 18 18 18 18 18
22 21 21 23 24 24 23 23 22 22 21 22 23 23 23 23 23 22 22 21 19 18 18 18 18 16 16 16 15 15 16 16 16 18 19 18 16 14 15 14 13 12 12 11 11 10 10 10 10 10 9 10 12 15 17 14 13 11 10 10 11 14 19 20 20 19 19 18 18 19 18 17 18 17 15 15 16 17 17 18 18 18 18 18 18
21 20 21 23 23 23 23 22 22 21 21 23 23 24 23 23 23 22 22 20 19 18 18 20 18 16 16 15 15 15 16 17 17 18 19 17 14 14 14 13 12 12 12 11 10 9 9 8 8 8 8 9 11 13 15 15 13 11 10 11 14 17 19 19 19 18 17 17 18 19 17 17 17 16 16 15 16 16 17 18 18 17 17 17 17
22 20 22 24 23 22 22 22 22 21 22 23 23 23 23 23 22 22 21 19 18 18 19 20 17 17 17 16 16 17 18 17 16 17 17 16 14 14 13 12 12 12 11 10 8 8 8 7 7 7 8 9 11 14 15 15 13 11 11 12 14 17 19 19 18 15 15 17 19 19 17 17 17 16 16 17 17 18 18 18 18 17 17 17 17
22 21 23 24 22 21 22 22 22 22 22 22 22 22 22 22 22 22 20 19 18 18 19 18 17 18 18 17 17 18 19 18 16 16 16 15 14 13 13 12 11 11 10 8 7 7 7 6 7 8 10 11 13 16 17 15 13 12 12 13 15 17 19 19 16 16 18 18 19 19 18 18 17 17 17 18 18 17 17 17 18 17 18 18 17
23 22 24 24 22 21 21 22 22 22 22 22 22 22 22 22 22 21 19 19 19 19 18 18 19 19 18 17 16 18 19 19 17 16 15 15 15 13 12 12 11 10 9 7 7 7 6 6 7 10 11 13 17 18 17 15 13 12 13 15 17 16 18 19 18 19 19 18 18 18 19 18 17 16 16 16 17 17 16 16 17 16 17 17 17
22 23 25 25 23 22 22 22 22 23 22 22 22 22 22 22 21 20 20 20 19 19 19 19 20 19 18 16 16 19 20 19 18 16 15 15 15 13 12 12 11 10 8 8 8 7 6 7 9 11 13 16 18 18 16 14 13 13 14 17 20 18 19 20 20 19 18 18 17 18 19 18 15 14 15 16 16 16 16 16 15 15 15 16 16
23 23 26 25 24 23 23 22 21 22 22 22 22 22 23 22 21 21 21 20 20 20 19 21 21 19 17 16 17 19 20 19 18 17 16 15 14 13 12 12 11 9 8 9 8 7 6 8 10 12 13 17 18 17 15 14 14 13 15 19 21 21 22 20 19 18 17 18 19 19 18 17 15 15 16 15 15 15 15 15 15 15 15 15 16
23 23 25 25 25 24 23 23 22 22 21 21 21 23 23 22 22 21 21 21 21 20 20 21 20 19 18 16 17 18 19 18 18 17 15 14 14 13 13 12 11 9 9 8 8 7 7 8 11 13 14 17 18 16 15 14 15 15 17 21 21 20 19 17 17 16 16 17 19 19 16 15 16 15 14 15 15 15 14 14 14 15 15 15 15
23 24 26 25 25 24 24 23 23 22 22 21 21 23 23 22 22 21 20 21 21 20 20 20 20 19 18 17 16 16 17 17 17 15 13 13 13 13 13 12 10 9 9 8 8 8 8 9 11 13 14 16 18 16 16 15 15 16 18 22 22 19 14 14 15 14 14 15 17 18 16 15 15 14 14 14 14 14 14 14 14 15 15 15 15
23 24 26 25 24 25 25 24 23 23 22 21 22 23 22 22 22 20 20 20 20 20 20 20 19 18 17 16 15 15 15 15 14 13 13 13 13 13 12 11 9 9 9 9 9 8 9 10 11 12 15 17 18 17 16 16 16 16 16 19 18 16 13 12 12 12 12 14 16 18 16 14 13 13 14 13 14 14 14 14 14 14 14 14 15
23 24 25 24 24 24 25 25 24 23 23 22 23 23 21 20 21 20 20 20 19 19 19 19 19 18 17 16 15 15 15 15 14 13 13 12 13 13 12 10 10 10 10 10 9 8 9 10 11 12 16 18 19 18 17 16 16 15 15 17 15 15 14 12 12 13 14 16 17 17 15 14 13 13 13 13 13 13 13 14 14 13 14 14 14
23 23 23 24 23 24 25 26 25 25 24 23 24 24 22 21 21 21 20 19 18 18 19 19 18 17 17 16 16 15 15 15 14 13 12 12 12 13 12 10 10 10 10 11 9 8 8 10 11 12 15 17 18 17 15 15 14 13 14 15 13 14 14 12 13 15 16 17 16 14 14 14 13 13 13 12 13 13 13 13 13 13 13 14 14
24 24 23 23 23 25 26 26 26 25 25 24 24 24 24 22 21 21 20 18 17 18 19 19 17 17 17 17 16 15 15 15 14 13 12 12 12 12 12 10 10 10 9 10 9 8 8 9 9 10 12 14 15 14 13 13 12 13 13 15 11 14 14 14 15 17 17 17 15 13 13 13 12 12 12 12 12 12 13 13 13 14 14 14 14
24 25 25 24 24 27 28 26 25 26 26 26 25 25 24 23 22 21 20 18 17 19 19 18 16 16 17 17 16 15 15 15 14 13 13 12 12 12 12 11 11 10 10 10 10 9 8 8 8 9 10 12 12 11 10 10 11 12 13 14 13 15 14 15 16 17 17 16 12 12 13 12 12 12 12 12 12 12 13 13 13 14 14 14 14
26 24 26 26 27 28 28 26 26 27 27 28 27 26 25 23 22 21 20 20 19 19 18 16 16 17 18 18 16 16 16 15 14 15 14 14 14 13 12 12 11 11 11 10 10 10 9 9 7 8 9 10 10 8 7 5 7 8 9 12 14 14 14 14 15 16 15 14 12 11 12 12 11 11 11 11 12 12 12 12 13 13 13 14 13
25 22 26 32 30 28 28 29 29 28 28 28 27 26 26 24 22 22 21 21 20 19 17 16 17 17 18 18 16 16 16 16 15 15 15 15 15 13 12 10 10 10 11 10 10 11 10 9 8 7 8 8 8 7 4 3 3 5 4 11 14 13 14 13 14 15 14 13 11 10 10 10 10 10 11 11 11 11 11 12 12 12 12 12 12
24 24 31 35 32 30 30 32 31 29 27 27 28 28 27 25 23 23 24 24 22 20 19 19 18 18 17 17 16 17 17 16 16 16 15 15 14 13 11 9 9 10 11 10 9 10 11 9 8 7 7 6 6 8 7 6 3 4 3 9 14 13 13 14 12 13 14 13 11 9 9 10 9 10 11 10 10 10 11 11 11 12 12 12 12
27 29 35 33 30 31 33 34 32 30 28 27 29 29 27 25 24 24 25 26 24 23 21 20 19 18 17 16 17 17 17 16 15 16 15 15 14 13 11 9 10 10 10 10 9 9 10 10 8 7 8 5 5 9 9 6 4 4 4 5 13 14 11 13 11 11 13 13 12 9 9 10 9 10 10 10 10 10 10 10 10 11 11 11 11
30 31 32 31 29 32 35 34 33 32 30 28 29 30 28 26 26 25 26 26 25 24 22 21 20 19 18 17 17 17 17 15 14 15 15 15 14 13 11 9 9 9 9 9 8 8 9 10 7 6 8 4 4 10 9 5 4 4 4 3 11 14 11 10 9 9 12 13 13 10 10 10 10 10 10 10 10 9 9 9 9 9 9 10 11
31 30 30 31 29 31 36 36 35 33 31 30 30 31 29 27 27 26 26 26 24 23 22 21 20 20 19 17 17 18 17 16 15 13 14 14 14 12 10 8 8 8 8 7 7 6 7 8 7 7 6 3 4 8 8 5 4 5 5 4 10 14 12 8 8 9 11 11 13 13 12 12 11 11 10 11 10 9 9 9 9 9 9 10 12
31 30 30 32 29 30 35 36 35 34 32 31 30 30 28 27 27 26 25 24 22 22 21 20 20 21 19 17 17 18 17 17 16 13 13 13 13 13 11 9 8 9 8 7 8 7 7 9 9 9 6 5 6 7 6 6 6 7 7 7 10 14 12 8 9 11 9 11 14 15 14 13 12 10 10 11 11 11 11 10 11 10 11 12 13
29 31 31 31 31 30 33 35 34 34 32 30 29 29 26 26 27 25 23 23 21 20 20 19 21 21 19 17 17 18 19 17 15 14 14 13 14 15 12 11 10 10 9 8 9 9 8 8 9 10 7 7 5 4 6 8 10 9 8 9 9 12 13 9 10 11 10 12 15 14 13 13 12 11 11 12 12 12 12 11 11 12 13 14 15
19 25 30 30 32 31 31 33 33 34 32 29 29 27 25 25 25 22 20 20 19 19 19 19 20 20 19 17 17 19 19 16 14 15 14 13 15 16 13 11 11 11 10 9 10 10 10 9 9 10 9 8 5 5 8 11 12 9 8 9 9 10 11 11 12 11 12 14 14 13 12 13 13 13 13 13 13 13 12 11 11 12 13 14 14
14 16 25 30 33 33 33 32 31 32 30 27 27 24 23 24 21 20 19 18 18 18 18 19 19 18 18 17 17 20 19 16 15 15 14 12 13 14 13 12 11 11 11 11 10 10 10 9 10 11 9 8 5 6 11 13 12 8 7 8 9 10 10 11 12 12 12 14 14 13 13 13 13 14 13 13 13 12 12 11 11 11 11 12 12
18 16 22 27 30 30 30 30 29 31 29 26 24 21 22 23 21 20 21 20 20 19 19 20 19 18 17 16 17 19 18 16 15 16 14 12 14 14 12 12 12 10 11 11 11 11 9 8 10 11 8 6 5 8 13 13 10 7 7 9 10 10 11 12 12 13 14 15 15 14 14 14 13 13 11 11 11 10 9 9 8 8 8 9 10
23 22 19 18 22 25 27 28 28 29 28 24 21 21 23 21 21 22 22 23 23 21 21 21 19 18 17 16 17 17 17 16 16 16 13 13 15 14 12 12 11 10 10 11 11 11 9 8 9 8 7 8 7 11 15 12 10 7 9 14 14 13 14 13 13 15 16 16 15 14 14 13 12 12 11 11 10 9 8 7 6 6 6 7 8
24 23 19 17 22 27 27 26 26 25 25 22 19 22 25 22 21 23 23 22 23 22 22 22 20 19 17 15 16 16 15 15 17 16 13 13 14 12 12 12 12 11 10 11 11 9 9 9 8 6 8 9 8 13 16 12 10 9 11 15 15 14 14 14 14 16 18 18 17 15 13 12 12 11 11 11 11 9 8 7 6 6 6 7 7
22 20 22 25 28 29 25 23 24 23 24 23 19 21 24 23 22 23 22 20 21 22 21 22 20 19 17 16 16 17 15 15 17 15 13 12 11 12 14 13 13 12 10 10 10 8 9 9 8 7 9 9 8 13 16 14 13 11 12 13 13 14 15 15 15 15 17 18 18 16 14 13 13 13 13 12 11 10 9 8 7 7 7 7 7
21 22 26 30 27 24 22 23 25 25 23 21 19 20 22 23 23 23 20 19 20 21 21 21 20 18 18 17 17 17 16 17 16 15 14 11 10 14 15 13 13 12 11 10 9 8 9 9 9 9 11 10 10 15 18 17 15 13 13 13 13 15 16 15 14 14 15 16 18 18 16 14 14 14 14 12 11 10 9 8 7 7 8 8 8
21 28 31 31 25 19 19 25 27 25 24 22 21 22 23 23 22 21 20 20 21 21 21 20 18 17 18 18 17 17 17 17 15 14 14 12 11 14 14 13 13 12 11 12 10 9 10 12 11 12 14 14 15 17 18 18 17 15 15 15 13 13 14 14 14 14 15 14 16 17 16 16 15 14 13 12 11 10 9 8 7 8 8 9 10
21 30 34 29 19 14 18 23 23 24 25 22 24 24 24 24 22 21 21 21 21 20 20 20 17 15 17 18 17 17 17 16 15 14 13 13 12 12 14 14 13 11 11 11 11 10 11 12 11 12 14 17 20 18 18 21 21 18 15 15 14 12 11 12 12 13 13 13 14 16 16 16 16 14 12 11 10 11 11 9 8 8 8 9 12
15 22 29 24 18 13 14 16 22 26 22 22 25 24 23 24 23 23 22 20 18 18 19 19 16 15 17 17 17 18 17 16 16 15 14 14 13 12 15 15 13 12 11 11 11 10 12 12 11 13 13 16 20 20 23 21 17 16 15 12 10 9 10 10 11 11 11 12 14 15 15 15 15 14 12 11 11 12 12 10 9 8 9 11 14
29 25 24 23 22 19 13 18 25 26 23 23 23 24 24 25 24 23 21 20 17 16 17 15 15 17 18 17 16 16 16 16 18 18 17 15 12 13 16 15 14 14 13 13 12 12 13 13 12 14 15 16 18 22 23 15 14 18 15 8 4 4 6 7 8 9 10 12 14 15 14 14 14 13 12 12 13 13 13 11 9 9 10 14 16
35 30 29 25 26 24 18 21 25 25 24 24 24 23 24 24 23 22 22 20 17 15 14 15 16 18 20 19 17 16 16 18 19 19 18 15 13 15 17 16 16 15 14 14 14 14 14 14 13 15 18 19 18 21 16 11 18 20 10 4 4 3 2 4 6 7 8 11 13 14 13 12 13 12 12 13 13 14 14 12 10 10 12 14 15
31 29 30 27 25 25 22 23 27 26 24 25 27 24 23 22 21 20 19 17 16 16 16 16 17 18 21 21 19 18 18 18 18 18 18 18 16 16 16 17 17 15 14 15 15 15 15 15 15 15 18 19 20 19 13 12 20 18 9 7 6 2 2 5 7 6 6 9 10 12 11 11 13 13 13 14 13 13 14 13 12 13 13 13 13
31 29 31 30 31 29 25 25 28 28 26 27 29 28 25 24 23 21 19 17 18 19 21 21 20 20 21 22 21 21 20 18 17 16 17 18 18 16 15 16 16 15 14 14 14 15 15 16 15 15 16 18 20 18 14 15 17 12 10 10 4 4 9 11 6 3 5 7 7 10 11 12 14 15 15 14 13 14 15 15 15 15 14 13 12
31 31 31 33 37 36 31 29 29 31 33 32 31 31 30 29 28 26 25 24 23 22 23 23 22 22 21 22 22 21 21 20 18 16 16 18 18 17 16 15 15 15 14 14 14 13 14 15 15 15 15 16 18 19 17 17 15 10 10 7 3 9 20 16 7 5 5 4 6 9 10 12 15 15 14 14 15 15 16 16 17 16 14 13 12
30 29 27 29 34 34 34 33 32 36 39 36 34 34 34 33 33 32 31 30 28 26 25 22 21 21 21 21 21 21 23 22 19 17 18 18 18 17 16 15 15 16 16 15 15 13 12 14 15 14 14 14 15 18 19 19 16 12 9 7 7 15 21 14 12 13 6 3 5 6 9 12 13 14 13 15 16 16 16 18 18 16 14 13 11
26 23 24 29 31 33 35 36 35 35 37 38 36 36 36 36 36 37 35 33 31 29 26 23 22 22 21 22 22 22 23 22 20 19 19 19 18 17 16 16 15 16 15 14 15 14 12 14 16 15 13 14 13 15 19 19 18 16 12 11 14 18 15 10 15 16 9 7 5 4 8 9 10 13 12 15 17 16 17 19 18 15 13 13 12
22 20 25 31 31 30 32 35 36 36 38 38 38 37 37 36 37 39 39 37 34 31 28 26 24 23 22 22 23 23 22 21 20 19 19 18 17 16 17 17 16 15 14 14 16 15 12 14 16 16 14 14 13 13 16 17 17 17 15 15 17 17 13 9 12 14 12 8 6 6 10 10 8 10 11 16 19 17 17 17 16 14 12 13 13
20 20 25 30 29 29 31 32 34 38 40 40 40 41 39 37 39 41 42 42 37 33 32 30 27 26 24 23 23 22 21 21 20 19 19 18 17 15 15 17 16 15 14 15 15 15 13 14 16 17 16 15 15 14 16 16 15 16 15 16 19 19 15 12 14 18 15 9 7 7 10 12 10 11 15 18 18 18 18 16 15 14 11 11 12
Wind_Direction
152 154 153 155 153 153 154 150 147 149 152 153 149 146 142 140 138 137 135 133 131 127 125 122 120 119 120 119 117 113 107 102 99 100 99 99 98 96 93 91 90 90 91 90 89 88 88 87 82 79 82 83 85 90 92 96 95 93 92 91 92 94 96 97 100 98 95 92 90 90 89 88 86 87 86 85 86 87 87 85 85 84 82 82 81
154 151 152 155 154 155 154 152 150 152 153 154 151 147 144 142 141 140 138 135 133 129 127 123 121 121 122 121 119 114 108 104 102 103 103 101 99 96 94 92 90 91 92 90 89 90 89 88 85 82 83 84 86 89 92 96 96 94 92 90 92 94 97 98 100 99 97 93 91 90 87 87 85 85 85 85 87 88 86 83 83 81 80 80 80
151 148 152 154 155 157 155 155 154 155 155 155 153 149 146 144 144 142 140 137 135 132 128 125 124 123 123 122 119 115 110 106 105 106 105 103 99 98 96 92 91 92 92 90 89 89 90 89 86 85 84 85 87 91 96 99 100 101 98 96 95 95 98 98 98 98 98 95 94 92 87 84 82 82 84 84 85 85 83 83 83 81 80 80 79
149 147 151 154 156 157 157 157 157 157 157 157 154 150 148 146 146 145 143 140 138 134 130 126 126 125 124 121 118 115 112 109 107 108 106 104 101 100 99 95 93 93 90 89 88 89 90 90 88 86 86 87 87 95 103 107 109 107 105 103 101 100 100 99 95 91 91 92 91 91 87 81 79 81 82 80 80 79 80 81 82 82 80 78 77
148 149 151 153 155 157 158 158 158 158 158 157 154 151 149 148 148 148 145 142 140 136 131 128 128 127 123 120 118 117 115 111 110 108 105 105 105 105 103 99 96 93 90 88 87 87 88 90 90 87 88 87 90 103 110 113 112 108 108 108 107 106 103 102 97 90 87 83 83 87 86 82 80 80 81 81 81 79 80 80 80 81 80 78 76
149 149 151 153 156 158 160 160 160 159 158 157 155 153 150 149 151 151 148 144 141 137 132 130 130 128 124 121 119 119 117 114 112 108 106 107 109 109 107 103 99 95 91 89 87 86 85 86 88 89 90 89 98 109 114 114 111 109 109 109 108 108 104 102 100 102 94 76 78 86 85 84 80 77 80 83 87 85 82 80 79 80 80 79 78
149 149 151 154 156 159 161 161 161 159 157 157 156 154 152 151 153 153 150 146 142 137 134 134 133 130 127 124 123 122 120 117 114 111 111 113 113 112 109 106 103 98 93 91 89 86 83 82 83 85 90 97 109 114 117 115 112 112 110 108 107 104 102 97 93 110 95 67 85 92 89 90 84 80 81 82 89 91 85 82 81 82 82 80 79
146 148 153 155 157 160 162 161 159 157 156 158 157 156 154 153 155 155 152 149 143 138 137 137 137 133 129 128 126 126 123 119 118 117 118 119 117 114 111 109 106 101 97 95 92 88 85 84 82 79 84 101 116 120 121 118 115 113 111 108 104 98 88 65 57 88 98 98 101 96 93 95 88 83 82 82 86 90 88 86 84 84 85 83 82
140 147 155 156 157 159 161 158 157 156 155 157 157 157 156 154 156 157 154 150 144 140 139 140 140 136 132 130 128 129 126 123 124 124 123 120 119 120 116 114 110 103 99 96 93 89 87 86 85 82 83 100 120 125 125 121 118 116 115 110 100 82 54 55 81 98 104 106 101 96 95 95 91 87 85 83 83 84 86 87 87 87 87 86 85
141 150 156 157 156 159 161 157 156 156 155 157 157 158 156 156 158 158 156 150 145 143 142 142 143 138 134 133 131 132 130 127 129 128 125 123 124 124 118 115 111 105 101 97 95 93 91 90 89 88 86 97 119 130 131 127 123 119 114 103 82 65 62 77 94 99 104 104 99 96 93 94 93 90 86 85 86 87 86 87 89 89 88 87 87
146 155 158 156 156 159 159 156 156 157 158 158 157 158 157 158 159 160 156 151 147 145 145 145 145 144 140 137 136 135 134 131 130 130 129 128 128 123 117 114 112 109 106 102 101 100 97 93 88 89 88 96 115 132 138 135 128 119 104 85 70 66 73 90 98 97 101 98 95 93 92 94 93 90 88 86 88 89 89 89 89 91 89 87 87
150 158 157 154 156 159 157 155 156 158 161 159 158 159 159 160 161 160 156 152 149 147 148 150 150 152 149 142 139 138 137 134 133 134 133 131 130 125 119 117 117 115 111 106 105 104 98 89 84 88 91 99 112 130 142 142 132 116 97 79 70 67 75 95 104 102 97 91 93 96 96 94 91 91 90 88 88 89 90 90 89 91 90 88 88
149 156 154 153 154 157 155 155 157 160 161 160 160 159 159 160 161 158 154 153 151 150 153 154 154 154 153 146 143 142 141 138 135 136 135 134 133 130 127 125 123 118 112 109 108 105 98 85 79 86 98 107 116 129 140 142 132 114 93 75 67 65 79 102 110 104 96 94 98 99 97 94 91 90 91 91 89 90 91 90 90 91 91 90 91
150 152 150 150 150 153 154 156 157 159 161 161 160 159 159 159 159 155 153 154 154 155 156 155 152 151 152 148 147 146 147 143 138 140 139 139 137 131 131 131 128 122 116 113 109 102 97 83 78 86 101 115 122 130 136 136 125 103 80 66 60 66 88 107 107 99 96 99 101 99 96 93 91 93 95 94 92 92 92 92 91 91 92 92 93
156 152 149 147 148 152 155 156 158 159 161 161 161 160 160 158 156 155 155 156 156 157 156 152 149 151 153 152 152 150 151 148 145 146 143 145 144 136 135 137 134 128 121 114 109 103 95 78 81 90 103 121 127 131 133 125 107 86 72 63 57 71 101 111 106 100 98 101 105 104 99 95 95 97 95 92 94 93 92 95 93 91 92 93 91
156 152 149 146 149 153 155 156 158 160 161 162 162 161 160 159 157 157 157 158 158 158 155 153 152 154 156 155 153 153 154 153 153 151 150 154 151 143 142 143 140 134 125 114 110 108 95 82 87 91 106 126 131 131 124 108 93 80 72 63 57 78 112 114 105 100 97 97 99 101 100 98 96 95 93 94 96 93 94 97 95 93 92 92 90
152 151 149 148 151 153 154 156 158 159 161 163 163 162 161 160 160 160 160 160 160 158 157 155 156 158 157 154 150 151 154 156 157 154 156 160 155 149 145 145 144 137 124 113 112 108 93 92 95 93 108 129 134 127 113 99 90 80 71 63 66 93 115 111 102 98 95 94 94 95 99 100 95 94 96 96 94 93 96 95 93 93 90 90 89
150 151 151 150 152 153 154 155 157 158 160 163 163 165 164 163 164 163 164 163 161 161 161 160 161 161 157 153 150 151 154 157 157 155 159 161 156 152 145 144 145 133 119 115 115 105 95 99 101 97 107 130 136 122 107 99 88 79 73 69 80 104 112 105 100 95 92 94 100 103 104 101 97 97 97 93 92 93 94 92 92 92 89 88 88
150 152 151 151 151 153 156 156 159 161 163 164 165 167 168 167 167 167 167 164 164 164 165 165 164 164 161 156 153 152 154 157 158 160 163 158 155 152 147 148 145 128 118 122 121 107 102 106 109 102 107 130 135 121 108 99 88 83 79 75 88 106 105 98 93 88 90 96 104 103 98 96 96 98 97 94 94 93 92 92 91 89 89 87 87
149 152 149 151 152 154 158 160 164 165 166 166 166 169 170 171 170 170 168 166 168 168 168 169 168 167 163 159 156 152 153 156 160 164 165 161 157 153 152 153 146 131 124 128 127 115 109 113 118 107 109 127 131 123 110 100 94 90 83 76 88 107 105 94 82 78 87 96 102 100 97 97 97 98 97 97 95 94 95 93 92 90 89 87 86
150 150 148 150 153 158 161 164 168 168 168 168 168 169 170 173 173 170 169 170 171 172 171 172 171 169 165 162 159 155 155 158 162 165 166 167 162 155 156 156 147 136 132 133 134 125 114 118 125 116 113 122 126 122 112 106 101 91 86 79 86 109 108 90 77 79 89 98 102 105 106 102 97 99 99 98 97 95 93 91 92 90 89 88 87
152 150 150 152 155 161 164 167 168 168 168 166 168 169 171 174 175 171 169 173 174 174 175 174 173 173 169 165 161 158 157 159 164 168 169 169 164 158 158 156 147 140 136 138 142 133 119 118 126 129 124 124 127 124 117 111 99 92 87 70 83 118 114 93 85 88 94 99 101 105 109 104 101 103 103 102 100 97 96 95 94 91 90 89 88
153 152 153 154 159 165 167 168 166 166 165 167 170 171 173 175 173 171 170 173 175 176 176 176 177 176 173 168 165 161 159 161 163 164 166 165 163 161 162 160 150 144 143 143 146 139 126 123 124 134 135 131 132 126 119 109 94 93 73 52 88 129 120 99 93 94 99 103 104 105 103 101 103 101 98 98 97 96 96 96 94 93 90 90 90
155 154 153 157 168 171 169 168 164 164 167 171 173 172 174 174 171 170 170 171 172 174 175 178 179 178 175 173 170 165 162 162 159 158 160 161 162 164 163 165 159 152 154 149 150 148 138 135 129 131 137 136 134 127 118 109 96 90 56 54 103 124 112 100 95 95 100 105 106 107 108 106 106 103 101 101 100 97 95 96 95 95 93 91 91
156 150 149 164 176 172 166 165 165 167 171 173 171 172 173 171 170 168 167 168 171 172 175 177 177 177 177 177 175 168 165 162 159 160 162 162 164 166 166 170 169 161 160 157 158 161 152 146 139 130 134 133 130 121 119 123 102 92 52 67 108 117 106 100 96 94 95 100 98 102 110 110 109 109 108 106 104 102 99 99 96 95 95 94 95
151 142 152 173 174 164 166 167 168 170 172 172 169 171 171 170 169 168 166 166 170 172 174 175 176 180 180 181 177 169 167 166 164 164 166 166 167 168 164 164 169 166 164 164 169 170 163 154 149 142 141 136 130 126 149 204 119 111 70 79 109 117 106 103 100 99 94 91 95 103 109 109 112 109 105 105 104 104 101 99 98 97 97 96 97
141 148 167 177 165 161 174 170 167 170 171 171 170 170 171 172 171 169 168 165 169 172 174 177 182 188 186 185 181 172 170 168 169 170 169 169 169 168 159 150 159 169 167 164 170 177 176 168 159 160 167 165 156 159 182 216 179 158 143 94 110 114 106 105 101 104 98 88 95 114 125 119 116 111 108 109 103 101 101 100 100 99 98 99 99
144 163 177 174 160 166 176 169 166 168 171 173 172 171 171 171 169 171 169 166 171 174 177 182 188 193 190 188 183 179 175 169 172 173 173 174 168 165 159 149 150 157 161 161 159 169 178 173 165 173 180 185 192 185 185 192 182 172 177 116 114 116 114 111 102 102 95 86 96 121 140 128 119 114 109 105 101 102 103 105 105 106 110 112 111
155 172 179 169 164 172 173 169 168 168 171 173 173 172 170 168 170 175 172 170 175 175 179 185 190 193 192 190 185 182 177 169 172 174 175 175 168 165 160 155 155 152 157 163 155 155 168 168 160 163 172 179 201 193 179 161 176 183 187 147 121 126 131 129 120 105 88 85 102 126 140 129 119 114 109 106 105 107 107 107 108 113 120 119 115
166 176 178 171 168 171 172 172 171 171 172 172 174 173 172 171 173 179 176 173 176 175 180 186 191 193 190 191 187 183 180 171 171 177 179 175 171 172 167 171 178 168 165 176 181 179 179 180 174 168 182 193 174 175 172 163 179 188 188 161 131 137 148 151 134 109 91 96 113 128 133 125 118 113 111 108 106 108 111 113 111 111 111 108 107
173 177 176 174 170 169 174 174 173 174 173 174 176 175 175 175 176 182 179 174 175 175 181 187 191 191 189 191 187 183 181 173 171 183 189 184 181 177 174 181 184 178 177 186 199 194 181 184 181 179 192 187 153 148 170 178 161 164 175 161 143 150 162 159 137 121 106 113 124 130 128 122 118 116 116 113 111 109 107 107 107 108 107 106 106
177 178 178 176 172 172 175 175 176 177 176 178 178 177 177 174 175 181 179 175 174 179 186 189 190 190 189 187 184 182 179 176 177 184 187 184 178 169 167 174 172 177 180 180 187 182 173 179 182 182 188 189 171 132 153 156 138 145 167 161 147 159 165 152 144 139 127 129 134 137 132 123 121 121 121 119 115 108 103 105 106 108 110 111 112
188 182 180 174 172 174 174 175 178 179 180 181 180 178 172 166 169 174 177 177 178 186 190 189 190 191 190 187 185 184 183 184 182 178 176 177 175 164 161 171 173 175 177 177 178 177 173 171 183 187 184 191 181 122 133 132 125 141 172 168 154 162 165 154 156 152 140 139 141 145 139 128 127 127 125 123 123 121 122 123 118 116 116 116 118
208 194 183 176 174 174 173 175 178 180 180 181 180 174 161 155 158 166 174 182 185 190 189 187 190 191 191 192 191 190 191 192 186 179 175 176 176 169 166 174 179 176 177 180 177 178 174 170 191 193 183 188 176 127 129 123 124 150 176 173 163 165 163 160 166 163 152 147 146 147 142 139 139 136 134 132 132 133 133 130 127 127 125 124 125
197 199 196 182 173 173 173 173 176 179 177 176 175 161 151 155 160 165 173 179 183 185 186 187 188 188 190 192 191 192 195 193 190 188 180 172 168 170 174 175 179 178 177 180 177 177 173 172 194 197 181 171 158 129 122 125 144 168 161 150 155 165 165 166 173 170 164 156 151 150 147 147 148 147 146 140 135 131 126 126 128 130 133 137 137
190 197 203 180 167 175 177 174 173 174 171 169 167 150 144 158 166 167 169 172 177 181 185 187 187 187 190 193 190 189 191 190 190 188 185 181 166 163 175 175 180 183 181 181 179 177 171 172 191 195 164 148 150 128 117 130 155 161 150 141 147 160 163 169 174 170 169 166 159 158 156 151 148 151 152 145 139 131 123 118 114 113 122 139 149
194 190 183 172 179 184 182 177 167 164 168 169 163 149 146 158 167 165 166 168 174 180 182 183 183 187 189 193 191 189 189 188 189 186 184 187 171 166 180 180 181 182 181 181 180 182 170 173 192 179 153 156 163 135 121 132 146 146 146 138 144 157 159 167 171 167 167 169 167 166 165 156 148 148 149 150 147 139 128 117 112 106 103 119 139
193 174 165 180 188 182 177 167 158 162 173 171 155 148 154 164 165 161 162 167 175 182 181 180 180 184 185 186 191 192 192 189 189 186 181 177 171 184 191 183 181 180 179 179 180 182 161 166 187 160 154 172 173 147 135 138 141 140 138 129 138 152 157 167 169 165 165 168 171 172 169 160 151 146 147 152 151 142 130 121 122 115 103 105 116
188 163 168 186 182 169 161 151 158 167 161 154 146 149 160 164 159 154 157 165 176 181 182 182 181 182 182 184 190 193 195 193 188 185 182 174 177 197 194 180 183 181 178 180 180 182 160 158 172 149 147 161 159 149 142 139 138 135 129 127 136 142 150 164 164 158 158 165 172 175 171 160 154 150 150 154 150 143 134 126 126 117 109 106 108
179 161 169 182 172 157 156 157 168 159 131 135 150 155 161 159 154 154 157 163 173 177 178 182 183 185 186 184 187 191 193 193 190 189 186 183 195 204 191 178 185 183 181 183 179 182 169 158 159 145 139 146 150 149 147 142 132 120 114 118 128 133 143 159 160 154 156 162 168 173 170 159 156 156 155 155 150 140 130 125 122 115 113 114 116
173 163 167 166 155 152 168 168 159 134 122 145 161 160 162 157 153 160 164 168 171 174 176 178 178 183 189 187 188 192 190 189 193 193 188 191 205 205 187 179 185 186 186 185 176 175 168 160 158 148 141 145 147 149 153 145 127 117 112 108 114 121 135 153 155 155 161 162 163 168 165 159 161 161 158 157 150 138 128 122 116 111 113 117 119
136 146 152 137 127 144 161 146 127 127 143 168 166 160 162 160 161 167 169 168 167 175 181 179 172 176 188 191 193 192 186 185 191 191 187 192 201 193 182 182 186 187 187 183 180 177 172 169 165 154 146 148 150 151 151 144 133 133 128 111 103 108 119 137 141 143 152 155 158 161 159 159 162 160 156 153 151 142 133 126 116 109 116 123 123
86 107 127 124 134 145 132 114 124 143 164 179 173 161 164 167 166 167 167 167 168 179 186 181 173 176 186 193 198 195 189 189 192 191 189 189 196 190 180 181 186 186 186 182 178 179 176 176 174 162 152 147 152 158 154 148 147 142 132 121 120 112 110 120 129 134 144 152 157 158 159 160 158 156 154 148 148 146 140 137 131 123 127 130 129
96 115 133 142 150 145 126 120 138 158 169 181 183 172 168 169 166 165 167 170 173 180 185 182 180 180 183 193 201 199 195 198 195 191 191 189 195 196 185 183 188 186 187 185 176 175 176 175 176 170 159 149 152 165 169 170 162 149 132 120 135 143 137 129 130 130 146 157 159 159 161 161 155 154 154 147 145 147 147 148 146 141 138 136 135
109 124 139 151 156 146 135 138 152 165 170 179 184 181 175 170 168 169 166 167 172 180 187 185 187 186 184 189 196 195 195 199 194 188 193 194 193 198 195 190 192 188 187 188 181 179 179 177 177 176 171 161 159 170 179 176 169 162 149 138 136 153 156 145 142 127 141 155 158 161 161 160 154 147 147 146 144 148 154 156 152 147 142 139 138
119 134 143 155 165 161 155 154 157 165 170 175 180 181 177 173 175 177 172 167 169 183 193 192 190 190 188 187 189 192 191 190 188 188 197 199 194 198 203 200 195 187 185 187 182 182 183 181 181 181 180 174 169 170 169 165 170 174 169 162 188 205 157 150 155 122 131 145 156 164 162 157 152 145 143 145 143 148 156 156 151 146 141 142 145
131 143 147 159 169 169 167 165 164 170 174 177 179 176 174 174 178 183 183 179 177 187 197 197 195 193 191 188 186 188 187 182 185 195 203 202 196 196 201 204 198 187 183 183 179 182 189 183 181 183 180 179 180 175 169 168 171 177 178 174 228 186 160 154 164 148 134 144 156 165 167 160 154 150 149 150 149 151 154 154 150 148 149 151 150
135 140 150 164 171 172 173 172 172 175 177 178 178 178 177 177 179 183 186 187 186 188 192 195 196 194 190 187 187 186 185 185 187 197 204 204 201 197 196 200 198 189 186 188 183 183 191 186 180 185 181 180 189 184 174 176 178 175 171 156 151 163 160 159 161 152 134 136 153 164 172 168 165 162 158 157 157 154 151 154 155 155 158 161 157
137 147 163 170 174 177 177 176 176 178 180 179 180 183 185 182 181 183 185 189 190 189 190 192 194 194 191 187 188 187 187 190 192 195 201 203 200 193 189 190 192 190 191 194 190 183 189 189 180 182 181 175 185 189 180 181 184 177 167 151 145 154 159 160 158 151 141 147 153 163 171 173 177 176 170 168 167 157 148 152 157 160 164 169 170
150 160 168 171 176 179 180 180 179 181 183 185 186 188 189 187 185 186 187 187 188 188 189 191 192 193 192 189 188 189 190 192 192 192 195 194 190 184 183 185 184 185 190 192 189 184 186 188 180 178 178 169 172 185 182 180 182 179 172 161 156 157 157 155 159 155 146 147 148 153 167 174 174 173 173 173 172 163 154 155 158 162 167 171 174
161 163 165 170 176 179 182 184 185 185 185 189 190 189 191 194 193 192 191 187 183 182 182 184 188 189 190 190 187 188 190 190 188 186 183 179 174 172 178 183 181 182 187 190 189 186 183 184 183 178 177 174 173 180 181 178 178 180 180 174 170 169 166 169 172 163 151 146 144 148 168 173 166 160 158 160 164 162 160 163 165 167 168 167 172